This demonstration page uses our WeatherBlox Daily Observations layout. Learn more.

Left ArrowRight Arrow

40.92501, -98.34201

Hourly Observations for August 7, 2022

Temp ( °F °C ) Dew Point ( °F °C ) Humidity (%) Winds ( mph kmh ) Pressure ( in mb ) Visibility ( mi km ) Precip ( " mm )
12:53 am 00:53 Cloudy with Light Rain 75 23.9 72 22.2 90 90 E 7 11 29.91 1013 5 8 0.00 0.00
1:10 am 01:10 Mostly Cloudy with Light Rain 74 23.3 72 22.2 94 94 ENE 8 13 29.87 1011 5 8 0.00 0.00
1:53 am 01:53 Mostly Clear with Mist and Fog 74 23.3 72 22.2 94 94 N 6 9 29.91 1013 5 8 0.01 0.25
2:53 am 02:53 Clear with Mist and Fog 74 23.3 71 21.7 91 91 ENE 3 6 29.89 1012 6 10 0.00 0.00
3:53 am 03:53 Partly Cloudy 78 25.6 66 18.9 67 67 S 10 17 29.85 1011 10 16 0.00 0.00
4:53 am 04:53 Clear 73 22.8 68 20 84 84 Calm 29.87 1011 10 16 0.00 0.00
5:53 am 05:53 Clear with Mist and Fog 71 21.7 68 20 90 90 N 10 17 29.88 1012 6 10 0.00 0.00
6:28 am 06:28 Mostly Clear with Mist and Fog 71 21.7 68 20 90 90 N 13 20 29.88 1012 4 6 0.00 0.00
6:41 am 06:41 Mostly Cloudy with Mist and Fog 70 21.1 68 20 93 93 N 13 20 29.89 1012 4 6 0.00 0.00
6:53 am 06:53 Cloudy with Mist and Fog 70 21.1 68 20 93 93 N 10 17 29.91 1013 3 4 0.00 0.00
7:53 am 07:53 Cloudy with Mist and Fog 70 21.1 67 19.4 90 90 N 10 17 29.94 1014 3 4 0.00 0.00
8:53 am 08:53 Cloudy with Mist and Fog 69 20.6 67 19.4 93 93 N 12 19 29.96 1015 1 2 0.00 0.00
9:16 am 09:16 Cloudy with Mist and Fog 69 20.6 66 18.9 90 90 N 13 20 29.94 1014 3 4 0.00 0.00
9:36 am 09:36 Cloudy with Mist and Fog 69 20.6 66 18.9 90 90 N 9 15 29.94 1014 3 5 0.00 0.00
9:53 am 09:53 Cloudy with Mist and Fog 70 21.1 66 18.9 87 87 N 8 13 29.98 1015 4 6 0.00 0.00
10:37 am 10:37 Cloudy 72 22.2 67 19.4 84 84 N 9 15 29.94 1014 7 11 0.00 0.00
10:53 am 10:53 Cloudy 72 22.2 67 19.4 84 84 N 8 13 29.98 1015 9 14 0.00 0.00
11:45 am 11:45 Cloudy 74 23.3 67 19.4 79 79 NNW 7 11 29.93 1014 10 16 0.00 0.00
11:53 am 11:53 Cloudy 74 23.3 67 19.4 79 79 NE 3 6 29.98 1015 10 16 0.00 0.00
12:53 pm 12:53 Cloudy 79 26.1 68 20 69 69 NNW 6 9 29.98 1015 10 16 0.00 0.00
1:53 pm 13:53 Cloudy 79 26.1 68 20 69 69 NW 16 26 30.01 1016 10 16 0.00 0.00
2:53 pm 14:53 Sunny 80 26.7 67 19.4 64 64 NNE 13 20 29.97 1015 10 16 0.00 0.00
3:44 pm 15:44 Mostly Cloudy 80 26.7 67 19.4 64 64 N 13 20 29.93 1013 10 16 0.00 0.00
3:53 pm 15:53 Mostly Cloudy 80 26.7 67 19.4 64 64 NNW 12 19 30.00 1016 10 16 0.00 0.00
4:53 pm 16:53 Cloudy 73 22.8 64 17.8 74 74 NNW 18 30 30.03 1017 10 16 0.00 0.00
5:53 pm 17:53 Cloudy 72 22.2 63 17.2 73 73 NNW 16 26 30.03 1017 10 16 0.00 0.00
6:53 pm 18:53 Mostly Cloudy 71 21.7 62 16.7 73 73 NNW 17 28 30.04 1017 10 16 0.00 0.00
7:04 pm 19:04 Partly Cloudy 71 21.7 62 16.7 73 73 N 16 26 29.99 1016 10 16 0.00 0.00
7:53 pm 19:53 Partly Cloudy 70 21.1 62 16.7 76 76 N 12 19 30.04 1017 10 16 0.00 0.00
8:02 pm 20:02 Mostly Cloudy 70 21.1 62 16.7 76 76 N 15 24 29.99 1016 10 16 0.00 0.00
8:53 pm 20:53 Cloudy 69 20.6 61 16.1 76 76 N 16 26 30.06 1018 10 16 0.00 0.00
9:53 pm 21:53 Cloudy 69 20.6 61 16.1 76 76 N 13 20 30.08 1019 10 16 0.00 0.00
10:26 pm 22:26 Mostly Clear 68 20 61 16.1 78 78 N 12 19 30.04 1017 10 16 0.00 0.00
10:53 pm 22:53 Clear 68 20 61 16.1 78 78 N 12 19 30.09 1019 10 16 0.00 0.00
11:53 pm 23:53 Mostly Clear 67 19.4 61 16.1 81 81 N 7 11 30.09 1019 10 16 0.00 0.00

Powered by AerisWeather